TimeCST,TemperatureF,Dew PointF,Humidity,Sea Level PressureIn,VisibilityMPH,Wind Direction,Wind SpeedMPH,Gust SpeedMPH,PrecipitationIn,Events,Conditions,WindDirDegrees,DateUTC
12:53 AM,36.0,32.0,86,30.26,10.0,Calm,Calm,-,N/A,,Clear,0,2013-01-08 06:53:00
1:53 AM,35.1,32.0,89,30.25,10.0,Calm,Calm,-,N/A,,Clear,0,2013-01-08 07:53:00
2:53 AM,34.0,30.9,89,30.26,10.0,Calm,Calm,-,N/A,,Clear,0,2013-01-08 08:53:00
3:53 AM,35.1,32.0,89,30.25,10.0,NE,4.6,-,N/A,,Clear,50,2013-01-08 09:53:00
4:53 AM,35.1,32.0,89,30.27,10.0,ENE,3.5,-,N/A,,Mostly Cloudy,70,2013-01-08 10:53:00
5:53 AM,35.1,33.1,92,30.28,10.0,Calm,Calm,-,N/A,,Mostly Cloudy,0,2013-01-08 11:53:00
6:53 AM,35.1,33.1,92,30.28,10.0,Calm,Calm,-,N/A,,Partly Cloudy,0,2013-01-08 12:53:00
8:53 AM,46.9,37.0,68,30.32,10.0,East,4.6,-,N/A,,Partly Cloudy,100,2013-01-08 14:53:00
9:53 AM,50.0,37.9,63,30.33,10.0,East,4.6,-,N/A,,Mostly Cloudy,90,2013-01-08 15:53:00
10:53 AM,53.1,39.9,61,30.32,10.0,SE,5.8,-,N/A,,Overcast,130,2013-01-08 16:53:00
11:53 AM,55.9,42.1,60,30.29,10.0,East,5.8,-,N/A,,Overcast,100,2013-01-08 17:53:00
12:53 PM,59.0,44.1,58,30.25,10.0,Variable,4.6,-,N/A,,Mostly Cloudy,0,2013-01-08 18:53:00
1:53 PM,61.0,44.1,54,30.24,10.0,Calm,Calm,-,N/A,,Overcast,0,2013-01-08 19:53:00
2:53 PM,62.1,45.0,53,30.22,10.0,ENE,4.6,-,N/A,,Mostly Cloudy,70,2013-01-08 20:53:00
3:53 PM,63.0,46.9,56,30.22,10.0,East,4.6,-,N/A,,Overcast,80,2013-01-08 21:53:00
4:25 PM,62.6,48.2,59,30.23,10.0,East,5.8,-,N/A,,Overcast,100,2013-01-08 22:25:00
4:53 PM,61.0,48.9,64,30.22,10.0,East,5.8,-,N/A,,Overcast,100,2013-01-08 22:53:00
6:35 PM,60.8,50.0,68,30.22,10.0,ENE,4.6,-,N/A,,Overcast,60,2013-01-09 00:35:00
6:53 PM,59.0,50.0,72,30.22,10.0,ENE,4.6,-,N/A,,Mostly Cloudy,70,2013-01-09 00:53:00
7:53 PM,60.1,50.0,69,30.23,10.0,East,3.5,-,N/A,,Overcast,100,2013-01-09 01:53:00
8:11 PM,60.8,48.2,63,30.23,10.0,East,4.6,-,N/A,,Overcast,100,2013-01-09 02:11:00
8:53 PM,61.0,48.0,62,30.23,10.0,East,4.6,-,N/A,,Overcast,90,2013-01-09 02:53:00
9:17 PM,60.8,48.2,63,30.22,10.0,ESE,8.1,-,N/A,,Overcast,110,2013-01-09 03:17:00
9:53 PM,60.1,48.0,64,30.23,10.0,Variable,5.8,-,N/A,,Overcast,0,2013-01-09 03:53:00
10:40 PM,60.8,48.2,63,30.24,10.0,ESE,5.8,-,N/A,,Overcast,110,2013-01-09 04:40:00
10:53 PM,60.1,48.0,64,30.24,10.0,SE,6.9,-,N/A,,Overcast,130,2013-01-09 04:53:00
11:53 PM,59.0,48.9,69,30.25,10.0,Variable,5.8,-,0.00,Rain,Light Rain,0,2013-01-09 05:53:00